TimeCDT,TemperatureF,Dew PointF,Humidity,Sea Level PressureIn,VisibilityMPH,Wind Direction,Wind SpeedMPH,Gust SpeedMPH,PrecipitationIn,Events,Conditions,WindDirDegrees,DateUTC
12:52 AM,68.0,63.0,84,29.95,10.0,SSW,3.5,-,N/A,,Partly Cloudy,210,2013-10-18 05:52:00
1:52 AM,68.0,63.0,84,29.95,10.0,WNW,8.1,-,N/A,,Overcast,300,2013-10-18 06:52:00
2:52 AM,66.9,63.0,87,29.92,10.0,WNW,3.5,-,N/A,,Mostly Cloudy,290,2013-10-18 07:52:00
3:52 AM,66.9,63.0,87,29.88,10.0,SE,3.5,-,N/A,,Partly Cloudy,130,2013-10-18 08:52:00
4:52 AM,66.0,63.0,90,29.84,10.0,ESE,6.9,-,N/A,,Clear,110,2013-10-18 09:52:00
5:33 AM,66.2,64.4,94,29.88,10.0,NNW,9.2,-,N/A,,Mostly Cloudy,330,2013-10-18 10:33:00
5:52 AM,68.0,64.0,87,29.88,10.0,North,4.6,-,N/A,,Overcast,350,2013-10-18 10:52:00
6:52 AM,68.0,64.0,87,29.89,10.0,WNW,6.9,-,N/A,,Mostly Cloudy,290,2013-10-18 11:52:00
7:52 AM,68.0,64.9,90,29.91,10.0,WNW,6.9,-,N/A,,Clear,290,2013-10-18 12:52:00
8:34 AM,69.8,64.4,83,29.92,10.0,WNW,5.8,-,N/A,,Mostly Cloudy,290,2013-10-18 13:34:00
8:52 AM,70.0,64.9,84,29.92,10.0,WNW,8.1,-,N/A,,Mostly Cloudy,300,2013-10-18 13:52:00
9:29 AM,73.4,66.2,78,29.91,10.0,NW,3.5,-,N/A,,Scattered Clouds,320,2013-10-18 14:29:00
9:52 AM,75.9,66.9,74,29.91,10.0,Calm,Calm,-,N/A,,Clear,0,2013-10-18 14:52:00
10:52 AM,81.0,69.1,67,29.90,10.0,Calm,Calm,-,N/A,,Clear,0,2013-10-18 15:52:00
11:52 AM,84.9,69.1,59,29.89,10.0,South,9.2,-,N/A,,Clear,170,2013-10-18 16:52:00
12:52 PM,87.1,69.1,55,29.87,10.0,SSW,8.1,-,N/A,,Mostly Cloudy,210,2013-10-18 17:52:00
1:52 PM,89.1,69.1,52,29.84,10.0,South,12.7,-,N/A,,Mostly Cloudy,190,2013-10-18 18:52:00
2:52 PM,88.0,68.0,51,29.81,10.0,South,10.4,-,N/A,,Scattered Clouds,190,2013-10-18 19:52:00
3:52 PM,88.0,68.0,51,29.79,10.0,SSW,13.8,-,N/A,,Mostly Cloudy,200,2013-10-18 20:52:00
4:52 PM,87.1,66.9,51,29.78,10.0,South,15.0,-,N/A,,Mostly Cloudy,190,2013-10-18 21:52:00
5:52 PM,87.1,66.9,51,29.77,10.0,South,12.7,-,N/A,,Clear,180,2013-10-18 22:52:00
6:52 PM,82.9,68.0,60,29.78,10.0,South,9.2,-,N/A,,Clear,170,2013-10-18 23:52:00
7:52 PM,79.0,69.1,72,29.81,10.0,SSE,6.9,-,N/A,,Clear,160,2013-10-19 00:52:00
8:52 PM,77.0,69.1,76,29.83,10.0,SSE,6.9,-,N/A,,Clear,160,2013-10-19 01:52:00
9:52 PM,75.0,69.1,82,29.85,10.0,SE,8.1,-,N/A,,Clear,140,2013-10-19 02:52:00
10:52 PM,73.9,70.0,87,29.87,10.0,Calm,Calm,-,N/A,,Clear,0,2013-10-19 03:52:00
11:52 PM,73.9,70.0,87,29.88,10.0,Calm,Calm,-,N/A,,Partly Cloudy,0,2013-10-19 04:52:00